Simultaneous Nadir Overpasses (SNOs) Predictions

Prediction of SNOs between AQUA and NOAA-19 Satellite Orbit:

Table of predicted SNOs for the next 14.0 days since TLE Epoch: 5/11/2012
Index Date (AQUA) Time (AQUA) AQUA Lat,Lon Date (NOAA-19) Time (NOAA-19) NOAA-19 Lat,Lon Distance(km) Time Diff (sec)
1 05/11/2012 13:18:51 -46.05, 12.80 05/11/2012 13:17:42 -46.01, 12.90 8.56 69
2 05/11/2012 14:05:49 54.64,-175.84 05/11/2012 14:06:10 54.64,-175.84 0.15 21
3 05/13/2012 18:02:58 -46.64, -58.05 05/13/2012 18:02:15 -46.65, -58.03 1.86 43
4 05/13/2012 18:49:24 57.11, 114.41 05/13/2012 18:50:10 57.11, 114.41 0.17 46
5 05/15/2012 22:46:28 -49.45,-128.02 05/15/2012 22:46:10 -49.45,-128.02 0.12 18
6 05/15/2012 23:33:07 59.11, 44.54 05/15/2012 23:34:18 59.11, 44.53 0.31 71
7 05/18/2012 03:29:46 -52.96, 162.46 05/18/2012 03:29:52 -52.96, 162.48 1.53 6
8 05/20/2012 07:26:31 46.06, -79.13 05/20/2012 07:25:29 46.05, -79.02 8.03 62
9 05/20/2012 08:13:33 -54.78, 92.27 05/20/2012 08:14:04 -54.78, 92.26 0.91 31
10 05/22/2012 12:10:44 46.37,-150.09 05/22/2012 12:10:07 46.37,-150.07 1.26 37
11 05/22/2012 12:57:08 -57.31, 22.57 05/22/2012 12:58:03 -57.31, 22.56 0.26 55
12 05/24/2012 16:54:06 49.73, 140.16 05/24/2012 16:53:52 49.74, 140.18 1.50 14




NCC Satellite Simultaneous Nadir Overpasses (SNOs) Prediction Service
